Idaho Falls, ID

1:32 PM MST on December 17, 2017 (GMT -0700)
Fanning

Weather History for KIDA - November, 2012

Change the Weather History Date:

Wednesday, November 28, 2012

  Actual Average Record
Temperature  
Mean Temperature 36 °F 26 °F  
Max Temperature 46 °F 35 °F 56 °F (2014)
Min Temperature 26 °F 17 °F -9 °F (1952)
Degree Days  
Heating Degree Days 29 39  
Month to date heating degree days 763 902  
Since 1 July heating degree days 1526 1824  
Cooling Degree Days 0 0  
Month to date cooling degree days 0 0  
Year to date cooling degree days 444 264  
Moisture  
Dew Point 27 °F    
Average Humidity 69    
Maximum Humidity 85    
Minimum Humidity 53    
Precipitation  
Precipitation 0.00 in 0.03 in 0.31 in (1988)
Month to date precipitation 0.93 0.81  
Year to date precipitation 6.11 9.46  
Sea Level Pressure  
Sea Level Pressure 30.16 in    
Wind  
Wind Speed 4 mph (North)    
Max Wind Speed 10 mph    
Max Gust Speed 12 mph    
Visibility 10 miles    
Events      
T = Trace of Precipitation, MM = Missing Value Source: NWS Daily Summary

Daily Weather History Graph

Daily Weather History Graph

Search for Another Location

Airport or City:

Trip Planner

Search our weather history database for the weather conditions in past years. The results will help you decide how hot, cold, wet, or windy it might be!

Date:

Astronomy

Nov. 28, 2012 Rise Set
Actual Time 7:38 AM MST 4:54 PM MST
Civil Twilight 7:06 AM MST 5:25 PM MST
Nautical Twilight 6:31 AM MST 6:01 PM MST
Astronomical Twilight 5:56 AM MST 6:35 PM MST
Moon 5:11 PM MST (11/28) 7:39 AM MST (11/28)
Length of Visible Light 10h 19m
Length of Day
9h 15m
Full, 100% of the Moon is Illuminated
Nov 28
Full
Dec 6
Last Quarter
Dec 13
New
Dec 19
First Quarter
Dec 28
Full

Hourly Weather History & Observations

Time (MST) Temp. Windchill Dew Point Humidity Pressure Visibility Wind Dir Wind Speed Gust Speed Precip Events Conditions
12:53 AM 28.9 °F 23.9 °F 25.0 °F 85% 30.28 in 10.0 mi North 4.6 mph - N/A   Clear
1:53 AM 28.0 °F 22.8 °F 24.1 °F 85% 30.27 in 10.0 mi North 4.6 mph - N/A   Clear
2:53 AM 28.0 °F 20.8 °F 24.1 °F 85% 30.27 in 10.0 mi North 6.9 mph - N/A   Clear
3:53 AM 28.0 °F 22.8 °F 24.1 °F 85% 30.26 in 10.0 mi North 4.6 mph - N/A   Clear
4:53 AM 27.0 °F 21.6 °F 23.0 °F 85% 30.26 in 10.0 mi North 4.6 mph - N/A   Clear
5:53 AM 28.0 °F 21.7 °F 24.1 °F 85% 30.26 in 10.0 mi NNW 5.8 mph - N/A   Clear
6:53 AM 28.0 °F 20.0 °F 23.0 °F 81% 30.26 in 10.0 mi North 8.1 mph - N/A   Clear
7:53 AM 27.0 °F 21.6 °F 21.9 °F 81% 30.27 in 10.0 mi North 4.6 mph - N/A   Scattered Clouds
8:53 AM 28.0 °F 22.8 °F 23.0 °F 81% 30.26 in 10.0 mi North 4.6 mph - N/A   Clear
9:53 AM 32.0 °F 25.6 °F 26.1 °F 79% 30.26 in 10.0 mi North 6.9 mph - N/A   Scattered Clouds
10:53 AM 35.1 °F 30.1 °F 28.0 °F 76% 30.24 in 10.0 mi North 5.8 mph - N/A   Scattered Clouds
11:53 AM 37.9 °F 32.7 °F 30.0 °F 73% 30.20 in 10.0 mi NNW 6.9 mph - N/A   Partly Cloudy
12:53 PM 44.1 °F 40.1 °F 30.9 °F 60% 30.13 in 10.0 mi North 6.9 mph - N/A   Scattered Clouds
1:53 PM 46.0 °F 43.1 °F 30.9 °F 56% 30.10 in 10.0 mi North 5.8 mph - N/A   Scattered Clouds
2:53 PM 45.0 °F 41.8 °F 30.9 °F 58% 30.07 in 10.0 mi NNE 5.8 mph - N/A   Mostly Cloudy
3:53 PM 41.0 °F 39.0 °F 32.0 °F 70% 30.07 in 10.0 mi NNW 3.5 mph - N/A   Overcast
4:53 PM 37.0 °F - 30.9 °F 79% 30.08 in 10.0 mi Calm Calm - N/A   Overcast
5:53 PM 36.0 °F - 28.9 °F 76% 30.07 in 10.0 mi Calm Calm - N/A   Clear
6:53 PM 34.0 °F 29.8 °F 28.0 °F 79% 30.06 in 10.0 mi NNW 4.6 mph - N/A   Partly Cloudy
7:53 PM 34.0 °F - 28.9 °F 82% 30.05 in 10.0 mi Calm Calm - N/A   Clear
8:53 PM 34.0 °F - 28.0 °F 79% 30.04 in 10.0 mi Calm Calm - N/A   Partly Cloudy
9:53 PM 34.0 °F - 28.9 °F 82% 30.04 in 10.0 mi Calm Calm - N/A   Mostly Cloudy
10:53 PM 35.1 °F 31.0 °F 30.0 °F 82% 30.04 in 10.0 mi SSW 4.6 mph - N/A   Overcast
11:53 PM 39.9 °F 37.8 °F 28.9 °F 65% 30.02 in 10.0 mi SSW 3.5 mph - N/A   Overcast